Regional Weather Roundup
Issued by NWS

Home | Current Version | Previous Version | Text Only | Print | Product List | Glossary Off
Versions: 1 2 3 4 5 6 7 8 9 10 11 12 13 14 15 16 17 18 19 20 21 22 23 24 25 26 27 28 29 30 31 32 33 34 35 36 37 38 39 40 41 42 43 44 45 46 47 48 49 50

000
ASUS43 KMKX 282011
RWRWI

WISCONSIN REGIONAL WEATHER ROUNDUP
NATIONAL WEATHER SERVICE MILWAUKEE/SULLIVAN WI
300 PM CDT FRI AUG 28 2015

NOTE: "FAIR" INDICATES FEW OR NO CLOUDS BELOW 12,000 FEET WITH NO
SIGNIFICANT WEATHER AND/OR OBSTRUCTIONS TO VISIBILITY.

WIZ001-002-006>008-014>016-023>028-282100-
NORTHWEST WISCONSIN

CITY           SKY/WX    TMP DP  RH WIND       PRES   REMARKS
SUPERIOR ARPT  MOSUNNY   80  66  63 SW12      29.95F HX  82
ASHLAND        PTSUNNY   80  67  64 SW9       29.98S HX  82
HAYWARD        MOSUNNY   77  63  61 S10       30.01F
SIREN          MOSUNNY   79  61  54 SW9       30.00S HX  80
CUMBERLAND     PTSUNNY   73  61  64 S10       30.02S
RICE LAKE      PTSUNNY   73  62  68 SE10G17   30.03S
CHETEK         PTSUNNY  N/A N/A N/A SE7       30.02F
LADYSMITH      CLOUDY    69  62  79 SE6       30.05F
EAU CLAIRE     LGT RAIN  68  64  87 VRB3      30.01F
MENOMONIE      PTSUNNY   69  65  85 SE13G18   30.01F
NEW RICHMOND   MOSUNNY   76  60  56 S13G20    30.01R
OSCEOLA        SUNNY     78  62  58 S9        30.03R
$$

WIZ003>005-009-010-017-018-282100-
NORTH CENTRAL WISCONSIN

CITY           SKY/WX    TMP DP  RH WIND       PRES   REMARKS
MANITOWISH WTR CLOUDY    73  63  72 SW14      30.03F
ARBOR VITAE    CLOUDY    72  63  73 W6        30.05R
WOODRUFF       CLOUDY    72  63  73 W6        30.05R
RHINELANDER    CLOUDY    70  62  76 SW9       30.07F
EAGLE RIVER    CLOUDY    72  60  65 SW10      30.04S
LAND O LAKES   CLOUDY    73  62  67 W7        30.04S
PHILLIPS       PTSUNNY   68  62  81 S6        30.04F
TOMAHAWK       CLOUDY    68  61  77 CALM      30.07F
MEDFORD        LGT RAIN  63  63  99 S6        30.07F
MERRILL        CLOUDY    67  63  85 SW7       30.08F
$$

WIZ029-030-035-036-043>047-282100-
CENTRAL WISCONSIN

CITY           SKY/WX    TMP DP  RH WIND       PRES   REMARKS
WAUSAU         CLOUDY    66  61  84 S7        30.08S
MOSINEE        LGT RAIN  64  64 100 CALM      30.10F
MARSHFIELD     LGT RAIN  65  61  87 S7        30.09F FOG
STEVENS POINT  RAIN      62  61  96 SW5       30.10F
WAUPACA        DRIZZLE   68  64  88 S5        30.10S
WAUTOMA        LGT RAIN  66  64  93 CALM      30.11F FOG
WISC RAPIDS    LGT RAIN  64  61  90 S3        30.11F FOG
CAMP DOUGLAS   LGT RAIN  64  64 100 E5        30.08F
$$

WIZ011>013-019>022-031-037>040-048>050-282100-
NORTHEAST WISCONSIN

CITY           SKY/WX    TMP DP  RH WIND       PRES   REMARKS
ANTIGO         CLOUDY    67  61  81 SW9       30.08F
SHAWANO        DRIZZLE   68  61  77 SW6       30.09S
OCONTO         CLOUDY    71  62  74 SW10      30.07R
STURGEON BAY   CLOUDY    68  59  73 S9        30.10S
GREEN BAY      CLOUDY    69  63  81 S6        30.09S
MANITOWOC      CLOUDY    66  60  81 MISG      30.11S
APPLETON       NOT AVBL
CLINTONVILLE   DRIZZLE   66  61  82 SW7       30.09S
OSHKOSH        CLOUDY    68  61  78 SW5       30.10S
$$

WIZ032>034-041-042-053>061-282100-
SOUTHWEST WISCONSIN

CITY           SKY/WX    TMP DP  RH WIND       PRES   REMARKS
LA CROSSE      RAIN      63  58  83 CALM      30.03R
SPARTA         RAIN      63  60  92 E12       30.03F
VIROQUA        CLOUDY    61  61 100 E13G18    30.02F
BOSCOBEL       LGT RAIN  64  59  83 CALM      30.05F
PRAIRIE DU CHI RAIN      62  58  87 SE10      30.01F
PLATTEVILLE    CLOUDY    64  63  96 SE7       30.08R
$$

WIZ056-057-062-063-064-067-068-282100-
SOUTH CENTRAL WISCONSIN

CITY           SKY/WX    TMP DP  RH WIND       PRES   REMARKS
REEDSBURG      RAIN      63  62  96 CALM      30.09F
BARABOO/DELLS  LGT RAIN  64  60  87 CALM      30.10F
LONE ROCK      LGT RAIN  64  62  93 E5        30.09F FOG
MINERAL POINT  LGT RAIN  64  63  94 E6        30.08F
MADISON        LGT RAIN  67  59  75 CALM      30.10F
MIDDLETON      CLOUDY    67  60  78 CALM      30.11S
WATERTOWN      CLOUDY    68  64  87 CALM      30.11S
MONROE         LGT RAIN  64  61  88 CALM      30.10F
JANESVILLE     CLOUDY    70  61  73 CALM      30.10F
$$

WIZ051-052-058>065-066-070>072-282100-
SOUTHEAST WISCONSIN

CITY           SKY/WX    TMP DP  RH WIND       PRES   REMARKS
MILWAUKEE      CLOUDY    70  60  70 SE6       30.11S
WAUKESHA       SUNNY     68  61  77 S5        30.13S
MILWAUKEE/TIMM SUNNY     72  57  60 SW5       30.12F
RACINE         CLOUDY    69  59  70 S5        30.13F
BURLINGTON     CLOUDY    68  60  76 CALM      30.11F
KENOSHA        CLOUDY    72  60  66 SW5       30.11F
FOND DU LAC    CLOUDY    69  61  75 SW8       30.11S
SHEBOYGAN      CLOUDY    70  63  78 S6        30.11S
WEST BEND      CLOUDY    68  59  73 CALM      30.11S
JUNEAU         CLOUDY    67  61  81 S3        30.12F
$$

LSZ147-162-282100-
LAKE SUPERIOR

STATION/POSITION TIME  TEMP    WIND        PRES    WAVE
                       AIR SEA DIR/SP/G            HT/PER
                 (UTC) (F)     (DEG/KT/KT) (MB)    (FT/S)
W MID LAKE BUOY  1950   58 56  220/  8/ 10 1014.3F   0
DEVILS ISLAND    2000   66     210/ 13/ 14 1014.1F
PORT WING        1940   73     250/  7/  9 1014.6S
SAXON HARBOR     1900   78     210/  7/ 14 1014.2F
$$

LMZ867-665-643>646-282100-
LAKE MICHIGAN

STATION/POSITION TIME  TEMP    WIND        PRES    WAVE
                       AIR SEA DIR/SP/G            HT/PER
                 (UTC) (F)     (DEG/KT/KT) (MB)    (FT/S)
CHAMBERS ISLAND  1900   70     190/  9/ 17 1017.9F
S GREEN BAY BUOY 1930   67 63  200/ 12/ 14 1019.7F
N MID LAKE BUOY  1950   64 64  190/ 19/ 21 1017.7F   3/ 5
NORTHPORT PIER   1900   65     150/  9/ 15 1018.3S
SISTER BAY       1904   73     180/ 15/ 18   N/A
ALGOMA LAKESHORE 1914          220/ 12/ 14   N/A
SHEBOYGAN LAKESH 2000   62     190/  9/  9 1019.8S
PORT WASHINGTON  1900   60      CALM  /  2 1020.3F
ATWATER BUOY     2000   56 48  170/  6/  8 1020.8F
MILWAUKEE LAKESH 1900   58     140/  6/  8   N/A
S MID LAKE BUOY  1950   68 69  170/  8/ 10 1019.8F   1/ 4
KENOSHA   LAKESH 2000   65     170/  9/ 10 1019.3F
$$

TC  - TEMPERATURE IN CELSIUS
VSB - VISIBILITY IN STATUTE MILES
WCI - WIND CHILL INDEX
HX  - HEAT INDEX




USA.gov is the U.S. government's official web portal to all federal, state and local government web resources and services.